| time (UTC) | temp C | wind direction | speed KPH | gust KPH | rain 1hr cm | rain 24hr cm | rain mn cm | humidity % | barometer mb |
| 20260502151609 | 21 | 360 | 3.2 | 8.0 | 0.00 | 0.00 | 0.00 | 14 | 1013.6 |
| 20260502130104 | 14 | 96 | 1.6 | 4.8 | 0.00 | 0.00 | 0.00 | 18 | 1012.6 |
| 20260502123105 | 15 | 344 | 0.0 | 1.6 | 0.00 | 0.00 | 0.00 | 17 | 1012.2 |
| 20260502121609 | 15 | 74 | 1.6 | 4.8 | 0.00 | 0.00 | 0.00 | 16 | 1012.2 |
| 20260502120104 | 15 | 343 | 0.0 | 3.2 | 0.00 | 0.00 | 0.00 | 17 | 1012.0 |
| 20260502114558 | 15 | 112 | 1.6 | 3.2 | 0.00 | 0.00 | 0.00 | 16 | 1012.0 |
| 20260502113059 | 15 | 97 | 0.0 | 4.8 | 0.00 | 0.00 | 0.00 | 16 | 1012.0 |
| 20260502111602 | 15 | 98 | 0.0 | 3.2 | 0.00 | 0.00 | 0.00 | 16 | 1011.9 |
| 20260502110001 | 15 | 98 | 0.0 | 4.8 | 0.00 | 0.00 | 0.00 | 16 | 1011.9 |
| 20260502104558 | 15 | 101 | 0.0 | 3.2 | 0.00 | 0.00 | 0.00 | 15 | 1011.9 |
| 20260502103106 | 16 | 60 | 0.0 | 3.2 | 0.00 | 0.00 | 0.00 | 16 | 1011.9 |
| 20260502101621 | 16 | 59 | 1.6 | 3.2 | 0.00 | 0.00 | 0.00 | 15 | 1011.8 |
| 20260502100116 | 17 | 182 | 1.6 | 6.4 | 0.00 | 0.00 | 0.00 | 15 | 1011.8 |
| 20260502080107 | 18 | 103 | 0.0 | 3.2 | 0.00 | 0.00 | 0.00 | 13 | 1012.1 |
| 20260502071502 | 20 | 219 | 0.0 | 3.2 | 0.00 | 0.00 | 0.00 | 13 | 1012.0 |
| 20260502070002 | 21 | 80 | 0.0 | 3.2 | 0.00 | 0.00 | 0.00 | 11 | 1011.7 |
| 20260502064501 | 21 | 5 | 0.0 | 3.2 | 0.00 | 0.00 | 0.00 | 11 | 1011.6 |
| 20260502063002 | 22 | 52 | 0.0 | 4.8 | 0.00 | 0.00 | 0.00 | 11 | 1011.4 |
| 20260502061501 | 22 | 28 | 1.6 | 6.4 | 0.00 | 0.00 | 0.00 | 11 | 1011.2 |
| 20260502060001 | 22 | 329 | 1.6 | 6.4 | 0.00 | 0.00 | 0.00 | 11 | 1011.0 |
| 20260502054500 | 22 | 40 | 0.0 | 4.8 | 0.00 | 0.00 | 0.00 | 12 | 1011.0 |
| 20260502053003 | 22 | 34 | 3.2 | 9.7 | 0.00 | 0.00 | 0.00 | 12 | 1010.9 |
| 20260502051501 | 22 | 30 | 0.0 | 6.4 | 0.00 | 0.00 | 0.00 | 11 | 1010.7 |
| 20260502050001 | 22 | 355 | 3.2 | 6.4 | 0.00 | 0.00 | 0.00 | 11 | 1010.6 |
| 20260502044502 | 22 | 9 | 0.0 | 1.6 | 0.00 | 0.00 | 0.00 | 11 | 1010.4 |
| 20260502043002 | 22 | 105 | 0.0 | 3.2 | 0.00 | 0.00 | 0.00 | 11 | 1010.2 |
| 20260502041502 | 23 | 108 | 0.0 | 3.2 | 0.00 | 0.00 | 0.00 | 11 | 1010.0 |
| 20260502040010 | 23 | 108 | 0.0 | 4.8 | 0.00 | 0.00 | 0.00 | 11 | 1009.8 |
| 20260502034501 | 23 | 32 | 1.6 | 6.4 | 0.00 | 0.00 | 0.00 | 10 | 1009.6 |
| 20260502033000 | 24 | 98 | 3.2 | 6.4 | 0.00 | 0.00 | 0.00 | 10 | 1009.4 |
| 20260502031501 | 25 | 78 | 0.0 | 4.8 | 0.00 | 0.00 | 0.00 | 10 | 1009.2 |
| 20260502030002 | 25 | 69 | 0.0 | 9.7 | 0.00 | 0.00 | 0.00 | 9 | 1008.9 |
| 20260502024502 | 25 | 179 | 1.6 | 16.1 | 0.00 | 0.00 | 0.00 | 9 | 1008.7 |
| 20260502023001 | 25 | 279 | 8.0 | 20.9 | 0.00 | 0.00 | 0.00 | 9 | 1008.6 |
| 20260502021500 | 25 | 355 | 6.4 | 20.9 | 0.00 | 0.00 | 0.00 | 9 | 1008.5 |
| 20260502020001 | 26 | 128 | 4.8 | 12.9 | 0.00 | 0.00 | 0.00 | 9 | 1008.4 |
| 20260502014602 | 26 | 301 | 1.6 | 9.7 | 0.00 | 0.00 | 0.00 | 10 | 1008.2 |
| 20260502013101 | 26 | 348 | 3.2 | 12.9 | 0.00 | 0.00 | 0.00 | 10 | 1008.2 |
| 20260502011611 | 26 | 319 | 3.2 | 14.5 | 0.00 | 0.00 | 0.00 | 10 | 1008.2 |
| 20260502011503 | 26 | 345 | 4.8 | 16.1 | 0.00 | 0.00 | 0.00 | 10 | 1008.1 |
| 20260502010100 | 27 | 5 | 3.2 | 12.9 | 0.00 | 0.00 | 0.00 | 11 | 1008.2 |
| 20260502004607 | 27 | 63 | 4.8 | 9.7 | 0.00 | 0.00 | 0.00 | 11 | 1008.1 |
| 20260502003059 | 27 | 338 | 3.2 | 12.9 | 0.00 | 0.00 | 0.00 | 10 | 1008.1 |
| 20260502001601 | 27 | 94 | 6.4 | 16.1 | 0.00 | 0.00 | 0.00 | 10 | 1008.3 |
| 20260502000115 | 27 | 5 | 3.2 | 16.1 | 0.00 | 0.00 | 0.00 | 11 | 1008.4 |
| 20260501234601 | 26 | 11 | 3.2 | 16.1 | 0.00 | 0.00 | 0.00 | 11 | 1008.5 |
| 20260501233101 | 26 | 91 | 4.8 | 14.5 | 0.00 | 0.00 | 0.00 | 11 | 1008.5 |
| 20260501231503 | 27 | 45 | 3.2 | 16.1 | 0.00 | 0.00 | 0.00 | 11 | 1008.4 |
| 20260501230002 | 27 | 88 | 6.4 | 20.9 | 0.00 | 0.00 | 0.00 | 11 | 1008.5 |
| 20260501224606 | 28 | 20 | 4.8 | 11.3 | 0.00 | 0.00 | 0.00 | 11 | 1008.7 |
| 20260501223125 | 28 | 49 | 4.8 | 12.9 | 0.00 | 0.00 | 0.00 | 11 | 1008.8 |
| 20260501221618 | 29 | 314 | 1.6 | 9.7 | 0.00 | 0.00 | 0.00 | 10 | 1009.0 |
| 20260501220101 | 28 | 348 | 3.2 | 17.7 | 0.00 | 0.00 | 0.00 | 11 | 1009.3 |
| 20260501220002 | 28 | 331 | 4.8 | 17.7 | 0.00 | 0.00 | 0.00 | 11 | 1009.3 |
| 20260501214603 | 28 | 355 | 9.7 | 16.1 | 0.00 | 0.00 | 0.00 | 11 | 1009.5 |
| 20260501213100 | 28 | 9 | 12.9 | 20.9 | 0.00 | 0.00 | 0.00 | 11 | 1009.6 |
| 20260501211601 | 28 | 25 | 1.6 | 12.9 | 0.00 | 0.00 | 0.00 | 11 | 1009.9 |
| 20260501210100 | 28 | 15 | 4.8 | 19.3 | 0.00 | 0.00 | 0.00 | 12 | 1010.0 |
| 20260501204600 | 28 | 20 | 9.7 | 19.3 | 0.00 | 0.00 | 0.00 | 11 | 1010.2 |
| 20260501203101 | 27 | 311 | 3.2 | 20.9 | 0.00 | 0.00 | 0.00 | 11 | 1010.2 |
| 20260501201600 | 28 | 5 | 6.4 | 14.5 | 0.00 | 0.00 | 0.00 | 11 | 1010.4 |
| 20260501200100 | 27 | 76 | 4.8 | 19.3 | 0.00 | 0.00 | 0.00 | 12 | 1010.6 |
| 20260501194600 | 27 | 320 | 3.2 | 17.7 | 0.00 | 0.00 | 0.00 | 12 | 1010.7 |
| 20260501194501 | 27 | 214 | 3.2 | 17.7 | 0.00 | 0.00 | 0.00 | 12 | 1010.7 |
| 20260501193100 | 27 | 355 | 4.8 | 17.7 | 0.00 | 0.00 | 0.00 | 12 | 1010.9 |
| 20260501191600 | 27 | 37 | 8.0 | 20.9 | 0.00 | 0.00 | 0.00 | 12 | 1011.0 |
| 20260501190116 | 26 | 22 | 8.0 | 19.3 | 0.00 | 0.00 | 0.00 | 12 | 1011.3 |
| 20260501190004 | 26 | 30 | 9.7 | 19.3 | 0.00 | 0.00 | 0.00 | 12 | 1011.2 |
| 20260501184559 | 26 | 326 | 6.4 | 17.7 | 0.00 | 0.00 | 0.00 | 11 | 1011.4 |
| 20260501183105 | 26 | 94 | 6.4 | 16.1 | 0.00 | 0.00 | 0.00 | 13 | 1011.7 |
| 20260501181559 | 26 | 360 | 6.4 | 14.5 | 0.00 | 0.00 | 0.00 | 12 | 1011.8 |
| 20260501181500 | 26 | 355 | 4.8 | 14.5 | 0.00 | 0.00 | 0.00 | 12 | 1011.8 |
| 20260501180100 | 25 | 324 | 4.8 | 20.9 | 0.00 | 0.00 | 0.00 | 13 | 1011.9 |
| 20260501174559 | 25 | 360 | 8.0 | 16.1 | 0.00 | 0.00 | 0.00 | 13 | 1011.9 |
| 20260501173102 | 24 | 339 | 6.4 | 19.3 | 0.00 | 0.00 | 0.00 | 13 | 1012.0 |
| 20260501171558 | 23 | 62 | 8.0 | 22.5 | 0.00 | 0.00 | 0.00 | 13 | 1012.1 |
| 20260501170058 | 24 | 15 | 9.7 | 24.1 | 0.00 | 0.00 | 0.00 | 13 | 1012.1 |
| 20260501164603 | 23 | 50 | 6.4 | 16.1 | 0.00 | 0.00 | 0.00 | 16 | 1012.0 |
| 20260501163104 | 22 | 336 | 4.8 | 12.9 | 0.00 | 0.00 | 0.00 | 17 | 1011.9 |
| 20260501161615 | 22 | 42 | 4.8 | 12.9 | 0.00 | 0.00 | 0.00 | 18 | 1011.9 |
| 20260501160115 | 22 | 9 | 4.8 | 14.5 | 0.00 | 0.00 | 0.00 | 18 | 1011.9 |
| 20260501154631 | 21 | 340 | 4.8 | 9.7 | 0.00 | 0.00 | 0.00 | 20 | 1011.8 |